Location: Byhalia Creek
(34.8270°N, 89.8040°W)
Time: 17:14:27
(UTC+00:00)

Cosmos 2292 Rocket - Pass Details

Date: 22 April 2026
Orbit: 367 x 1221 km, 83.0° (Epoch: 9 May)

Event Time Altitude Azimuth Distance (km) Brightness Sun altitude
Rises 02:12:42 0° 1° (N) 2,843 7.4 -19.0°
Reaches altitude 10° 02:15:15 10° 10° (N) 1,798 6.2 -19.4°
Enters shadow 02:18:02 32° 47° (NE) 849 4.1 -19.9°
